Radiation Dose at Monitoring Post of Fukushima Daini Nuclear Power Station
Date,Time,MP-1(microSv/h),MP-2(microSv/h),MP-3(microSv/h),MP-4(microSv/h),MP-5(microSv/h),MP-6(microSv/h),MP-7(microSv/h),Wind Direction,Wind Velocity(m/s),Rain
2023/11/06,00:00,0.150,0.137,0.218,0.208,0.212,0.123,0.079,north-northwest,3.8,No
2023/11/06,00:10,0.150,0.137,0.219,0.207,0.211,0.123,0.079,north-northwest,4.2,No
2023/11/06,00:20,0.150,0.135,0.220,0.208,0.213,0.123,0.079,north-northwest,3.3,No
2023/11/06,00:30,0.150,0.137,0.219,0.208,0.211,0.123,0.078,north-northwest,3.4,No
2023/11/06,00:40,0.150,0.136,0.219,0.207,0.211,0.124,0.078,north-northwest,3.3,No
2023/11/06,00:50,0.151,0.137,0.220,0.208,0.211,0.123,0.078,north-northwest,3.8,No
2023/11/06,01:00,0.150,0.136,0.219,0.208,0.212,0.123,0.078,north-northwest,4.3,No
2023/11/06,01:10,0.150,0.135,0.219,0.207,0.211,0.123,0.078,north-northwest,3.4,No
2023/11/06,01:20,0.150,0.136,0.220,0.207,0.211,0.123,0.079,north-northwest,3.2,No
2023/11/06,01:30,0.150,0.136,0.219,0.207,0.212,0.123,0.079,north-northwest,2.2,No
2023/11/06,01:40,0.150,0.136,0.220,0.208,0.210,0.123,0.079,north-northwest,2.3,No
2023/11/06,01:50,0.150,0.136,0.219,0.208,0.212,0.123,0.079,north-northwest,2.0,No
2023/11/06,02:00,0.151,0.135,0.219,0.207,0.211,0.124,0.078,north-northwest,2.4,No
2023/11/06,02:10,0.150,0.136,0.220,0.207,0.212,0.124,0.079,north-northwest,2.1,No
2023/11/06,02:20,0.150,0.135,0.218,0.206,0.211,0.124,0.078,north-northwest,0.9,No
2023/11/06,02:30,0.150,0.136,0.221,0.208,0.211,0.123,0.078,north-northwest,1.4,No
2023/11/06,02:40,0.150,0.136,0.219,0.207,0.210,0.124,0.078,north-northwest,1.6,No
2023/11/06,02:50,0.151,0.136,0.219,0.208,0.212,0.123,0.078,west,0.8,No
2023/11/06,03:00,0.150,0.136,0.219,0.207,0.211,0.123,0.079,southwest,0.8,No
2023/11/06,03:10,0.151,0.136,0.218,0.207,0.211,0.123,0.078,-,CALM,No
2023/11/06,03:20,0.150,0.136,0.219,0.208,0.211,0.122,0.077,-,CALM,No
2023/11/06,03:30,0.151,0.136,0.220,0.206,0.211,0.124,0.079,south-southeast,1.6,No
2023/11/06,03:40,0.150,0.136,0.219,0.208,0.211,0.124,0.078,east-southeast,0.9,No
2023/11/06,03:50,0.151,0.136,0.218,0.207,0.212,0.123,0.078,east-southeast,1.1,No
2023/11/06,04:00,0.150,0.136,0.219,0.207,0.211,0.123,0.078,east-southeast,1.0,No
2023/11/06,04:10,0.149,0.136,0.221,0.208,0.209,0.124,0.078,east-southeast,1.1,No
2023/11/06,04:20,0.150,0.137,0.220,0.207,0.212,0.123,0.079,south-southeast,0.9,No
2023/11/06,04:30,0.151,0.136,0.218,0.208,0.211,0.124,0.078,south-southeast,0.8,No
2023/11/06,04:40,0.150,0.137,0.220,0.208,0.212,0.124,0.079,south-southeast,1.3,No
2023/11/06,04:50,0.149,0.136,0.218,0.207,0.209,0.123,0.078,south-southeast,1.9,No
2023/11/06,05:00,0.150,0.136,0.219,0.206,0.213,0.123,0.078,southeast,2.0,No
2023/11/06,05:10,0.149,0.136,0.218,0.207,0.210,0.122,0.078,south-southeast,3.3,No
2023/11/06,05:20,0.151,0.136,0.220,0.207,0.212,0.124,0.078,south-southeast,2.1,No
2023/11/06,05:30,0.150,0.135,0.220,0.207,0.210,0.123,0.078,south-southeast,1.9,No
2023/11/06,05:40,0.150,0.136,0.218,0.207,0.213,0.123,0.078,south-southeast,3.2,No
2023/11/06,05:50,0.150,0.137,0.220,0.207,0.211,0.122,0.079,southeast,3.5,No
2023/11/06,06:00,0.150,0.136,0.219,0.208,0.211,0.124,0.078,south-southeast,4.4,No
2023/11/06,06:10,0.149,0.137,0.220,0.207,0.210,0.123,0.079,southeast,4.9,No
2023/11/06,06:20,0.151,0.136,0.218,0.208,0.210,0.123,0.078,south-southeast,4.7,No
2023/11/06,06:30,0.149,0.136,0.220,0.205,0.210,0.123,0.079,south-southeast,4.6,No
2023/11/06,06:40,0.151,0.135,0.219,0.208,0.211,0.123,0.078,south-southeast,5.2,No
2023/11/06,06:50,0.149,0.136,0.218,0.206,0.209,0.122,0.078,south-southeast,6.0,No
2023/11/06,07:00,0.149,0.135,0.219,0.207,0.211,0.123,0.078,south,6.1,No
2023/11/06,07:10,0.148,0.136,0.218,0.206,0.209,0.122,0.079,south,7.6,No
2023/11/06,07:20,0.150,0.135,0.220,0.207,0.209,0.122,0.077,south,6.4,No
2023/11/06,07:30,0.148,0.134,0.218,0.205,0.209,0.123,0.078,south,7.9,No
2023/11/06,07:40,0.149,0.135,0.219,0.206,0.212,0.121,0.077,south,7.0,No
2023/11/06,07:50,0.149,0.135,0.218,0.206,0.210,0.122,0.078,south,6.6,No
2023/11/06,08:00,0.150,0.134,0.220,0.206,0.211,0.122,0.077,south,7.3,No
2023/11/06,08:10,0.149,0.135,0.217,0.206,0.211,0.123,0.077,south,7.2,No
2023/11/06,08:20,0.148,0.134,0.219,0.204,0.208,0.122,0.077,south,7.5,No
2023/11/06,08:30,0.149,0.135,0.216,0.206,0.210,0.122,0.077,south,6.5,No
2023/11/06,08:40,0.148,0.134,0.218,0.205,0.208,0.122,0.077,south-southeast,5.9,No
2023/11/06,08:50,0.149,0.135,0.218,0.207,0.210,0.122,0.078,south,7.6,No
2023/11/06,09:00,0.149,0.135,0.217,0.206,0.210,0.122,0.077,south,7.6,No
2023/11/06,09:10,0.147,0.134,0.218,0.205,0.208,0.122,0.077,south-southeast,7.7,No
2023/11/06,09:20,0.150,0.136,0.218,0.206,0.210,0.122,0.078,south,6.6,No
2023/11/06,09:30,0.148,0.134,0.217,0.205,0.210,0.122,0.077,south,8.1,No
2023/11/06,09:40,0.148,0.134,0.218,0.204,0.208,0.123,0.077,south-southeast,7.1,No
2023/11/06,09:50,0.151,0.135,0.216,0.207,0.210,0.122,0.078,south,9.0,No
2023/11/06,10:00,0.149,0.136,0.218,0.207,0.210,0.123,0.078,south,9.2,No
2023/11/06,10:10,0.148,0.134,0.218,0.204,0.208,0.122,0.078,south,8.1,No
2023/11/06,10:20,0.147,0.135,0.216,0.207,0.207,0.121,0.077,south,8.1,No
2023/11/06,10:30,0.150,0.136,0.218,0.206,0.209,0.122,0.077,south,8.3,No
2023/11/06,10:40,0.149,0.134,0.218,0.203,0.211,0.122,0.077,south,8.2,No
2023/11/06,10:50,0.149,0.133,0.217,0.203,0.209,0.122,0.077,south,9.2,No
2023/11/06,11:00,0.147,0.134,0.216,0.206,0.208,0.121,0.077,south,9.2,No
2023/11/06,11:10,0.146,0.134,0.218,0.207,0.208,0.122,0.076,south,7.6,No
2023/11/06,11:20,0.149,0.135,0.219,0.205,0.211,0.121,0.078,south,7.6,No
2023/11/06,11:30,0.149,0.133,0.217,0.205,0.211,0.121,0.077,south,6.8,No
2023/11/06,11:40,0.149,0.133,0.217,0.208,0.208,0.121,0.077,south,8.5,No
2023/11/06,11:50,0.147,0.136,0.218,0.206,0.209,0.122,0.076,south,8.1,No
2023/11/06,12:00,0.147,0.135,0.219,0.205,0.211,0.122,0.077,south,9.2,No
2023/11/06,12:10,0.150,0.134,0.216,0.207,0.210,0.121,0.077,south,10.0,No
2023/11/06,12:20,0.149,0.135,0.218,0.205,0.208,0.121,0.077,south,8.1,No
2023/11/06,12:30,0.148,0.136,0.218,0.205,0.209,0.123,0.077,south,8.7,No
2023/11/06,12:40,0.148,0.135,0.216,0.205,0.212,0.123,0.077,south,8.4,No
2023/11/06,12:50,0.149,0.135,0.217,0.207,0.210,0.121,0.077,south,10.1,No
2023/11/06,13:00,0.149,0.136,0.220,0.207,0.210,0.123,0.077,south,8.7,No
2023/11/06,13:10,0.147,0.135,0.217,0.205,0.210,0.122,0.077,south,7.8,No
2023/11/06,13:20,0.149,0.135,0.216,0.207,0.211,0.122,0.077,south,8.8,No
2023/11/06,13:30,0.151,0.135,0.219,0.207,0.209,0.121,0.078,south,9.6,No
2023/11/06,13:40,0.148,0.135,0.219,0.205,0.209,0.122,0.076,south-southeast,9.2,No
2023/11/06,13:50,0.147,0.134,0.216,0.206,0.212,0.122,0.077,south,9.6,No
2023/11/06,14:00,0.150,0.134,0.219,0.206,0.211,0.121,0.078,south,10.3,No
2023/11/06,14:10,0.148,0.136,0.219,0.204,0.208,0.121,0.077,south,10.7,No
2023/11/06,14:20,0.148,0.135,0.215,0.206,0.211,0.122,0.078,south-southeast,10.7,No
2023/11/06,14:30,0.150,0.134,0.219,0.209,0.210,0.121,0.077,south-southeast,12.0,No
2023/11/06,14:40,0.149,0.135,0.219,0.205,0.209,0.121,0.077,south,12.0,No
2023/11/06,14:50,0.148,0.135,0.216,0.207,0.212,0.122,0.077,south-southeast,14.2,No
2023/11/06,15:00,0.149,0.135,0.220,0.207,0.211,0.122,0.078,south,12.9,No
2023/11/06,15:10,0.150,0.136,0.217,0.205,0.209,0.121,0.077,south-southeast,11.7,No
2023/11/06,15:20,0.147,0.135,0.217,0.205,0.211,0.122,0.077,south,9.5,No
2023/11/06,15:30,0.149,0.134,0.219,0.206,0.212,0.122,0.077,south,7.2,No
2023/11/06,15:40,0.149,0.136,0.218,0.205,0.208,0.123,0.077,south,8.1,No
2023/11/06,15:50,0.147,0.135,0.219,0.207,0.211,0.123,0.077,south,9.3,No
2023/11/06,16:00,0.150,0.135,0.219,0.207,0.211,0.123,0.077,south,8.8,No
2023/11/06,16:10,0.149,0.135,0.217,0.205,0.209,0.122,0.077,south,8.7,No
2023/11/06,16:20,0.149,0.135,0.219,0.207,0.212,0.122,0.077,south,9.2,No
2023/11/06,16:30,0.149,0.135,0.216,0.206,0.209,0.122,0.077,south,8.9,No
2023/11/06,16:40,0.147,0.134,0.218,0.207,0.208,0.121,0.077,south-southeast,7.9,No
2023/11/06,16:50,0.150,0.136,0.218,0.208,0.213,0.123,0.078,south,8.7,No
2023/11/06,17:00,0.149,0.134,0.218,0.205,0.208,0.122,0.077,south,6.8,No
2023/11/06,17:10,0.148,0.135,0.219,0.208,0.211,0.122,0.077,south,7.2,No
2023/11/06,17:20,0.149,0.135,0.216,0.207,0.211,0.122,0.077,south,8.1,No
2023/11/06,17:30,0.148,0.134,0.219,0.206,0.209,0.122,0.077,south,7.7,No
2023/11/06,17:40,0.148,0.135,0.218,0.207,0.212,0.122,0.078,south-southeast,8.2,No
2023/11/06,17:50,0.149,0.135,0.218,0.206,0.210,0.122,0.077,south-southeast,8.9,No
2023/11/06,18:00,0.148,0.134,0.218,0.207,0.209,0.121,0.077,south-southeast,9.5,No
2023/11/06,18:10,0.149,0.135,0.217,0.207,0.211,0.122,0.077,south-southeast,7.5,No
2023/11/06,18:20,0.150,0.134,0.220,0.206,0.208,0.123,0.077,south-southeast,8.9,No
2023/11/06,18:30,0.150,0.136,0.217,0.207,0.211,0.122,0.076,south-southeast,8.3,No
2023/11/06,18:40,0.149,0.135,0.218,0.205,0.211,0.123,0.077,south,9.5,No
2023/11/06,18:50,0.148,0.136,0.218,0.207,0.208,0.122,0.077,south,8.5,No
2023/11/06,19:00,0.148,0.136,0.216,0.207,0.211,0.122,0.077,south,7.9,No
2023/11/06,19:10,0.150,0.134,0.219,0.206,0.210,0.122,0.078,south,7.7,No
2023/11/06,19:20,0.147,0.135,0.217,0.208,0.211,0.121,0.078,south-southeast,7.2,No
2023/11/06,19:30,0.150,0.134,0.218,0.206,0.210,0.122,0.077,south,7.0,No
2023/11/06,19:40,0.149,0.135,0.218,0.206,0.209,0.122,0.077,south,7.3,No
2023/11/06,19:50,0.150,0.135,0.217,0.206,0.211,0.121,0.077,south,7.2,No
2023/11/06,20:00,0.150,0.136,0.218,0.206,0.210,0.122,0.077,south,8.4,No
2023/11/06,20:10,0.148,0.136,0.217,0.208,0.209,0.122,0.078,south,7.3,No
2023/11/06,20:20,0.149,0.134,0.219,0.206,0.210,0.122,0.077,south,8.1,No
2023/11/06,20:30,0.149,0.136,0.217,0.206,0.208,0.122,0.078,south,5.4,No
2023/11/06,20:40,0.148,0.135,0.217,0.208,0.211,0.121,0.077,south,7.5,No
2023/11/06,20:50,0.150,0.134,0.217,0.206,0.211,0.122,0.077,south-southwest,7.0,No
2023/11/06,21:00,0.149,0.136,0.217,0.207,0.209,0.123,0.077,south-southwest,8.5,No
2023/11/06,21:10,0.148,0.134,0.218,0.206,0.210,0.122,0.077,south-southwest,8.1,No
2023/11/06,21:20,0.149,0.135,0.217,0.206,0.210,0.122,0.077,south-southwest,9.5,No
2023/11/06,21:30,0.148,0.135,0.218,0.208,0.210,0.122,0.077,south,8.2,Yes
2023/11/06,21:40,0.149,0.134,0.218,0.205,0.211,0.122,0.077,south,6.4,Yes
2023/11/06,21:50,0.149,0.136,0.217,0.208,0.210,0.123,0.077,south,5.6,Yes
2023/11/06,22:00,0.148,0.134,0.218,0.208,0.211,0.122,0.077,south-southwest,7.2,No
2023/11/06,22:10,0.149,0.135,0.217,0.205,0.211,0.121,0.077,south,5.6,No
2023/11/06,22:20,0.148,0.135,0.219,0.207,0.209,0.123,0.077,south,6.4,No
2023/11/06,22:30,0.148,0.135,0.218,0.206,0.212,0.122,0.077,south,7.9,No
2023/11/06,22:40,0.149,0.135,0.217,0.206,0.211,0.122,0.078,south,7.8,No
2023/11/06,22:50,0.147,0.134,0.219,0.207,0.208,0.122,0.077,south,9.3,No
2023/11/06,23:00,0.148,0.135,0.218,0.204,0.211,0.121,0.077,south,9.6,No
2023/11/06,23:10,0.150,0.135,0.220,0.207,0.209,0.121,0.076,south,9.6,No
2023/11/06,23:20,0.148,0.134,0.219,0.208,0.209,0.123,0.077,south-southeast,7.0,No
2023/11/06,23:30,0.149,0.135,0.217,0.205,0.210,0.122,0.077,south,9.2,No
2023/11/06,23:40,0.149,0.135,0.219,0.207,0.209,0.121,0.077,south,9.5,No
2023/11/06,23:50,0.147,0.135,0.218,0.206,0.210,0.123,0.077,south,8.9,No
